User: anonymous   Login
Location: Mauna Kea VIS
(19.7591°N, 155.4561°W)
Time: 20:32:08
(UTC-10:00)
Language:

Cosmos 1624 Rocket - Orbit

View from above orbital plane
View from above orbital plane
View from above satellite
View from above satellite

Ground track
Ground track

The orbit data is extracted from the following two-line orbital elements,

1 15483U 85006B   17324.77446830  .00000074  00000-0  34145-4 0  9998
2 15483  74.0473  67.8840 0018784   6.7029 106.8290 14.36206608719035
Epoch (UTC): 20 November 2017 18:35:14
Eccentricity: 0.0018784
inclination: 74.0473°
perigee height: 757 km
apogee height: 784 km
right ascension of ascending node: 67.8840°
argument of perigee: 6.7029°
revolutions per day: 14.36206608
mean anomaly at epoch: 106.8290°
orbit number at epoch: 71903

The dashed part of the orbit path shows where the satellite is in the earth's shadow,  

DLR